�������l�o���
Date,Time,MP-1(��Sv/h),MP-2(��Sv/h),MP-3(��Sv/h),MP-4(��Sv/h),MP-5(��Sv/h),MP-6(��Sv/h),MP-7(��Sv/h),MP-8(��Sv/h),����,����(m/s),���J
2023/08/09,00:00,0.544,0.828,0.504,1.019,0.746,0.327,0.582,0.537,��,7.6,�L
2023/08/09,00:10,0.544,0.827,0.502,1.018,0.745,0.326,0.580,0.538,��,7.4,�L
2023/08/09,00:20,0.543,0.828,0.503,1.016,0.744,0.327,0.580,0.537,��,8.0,��
2023/08/09,00:30,0.546,0.828,0.503,1.020,0.745,0.328,0.581,0.536,��,7.0,�L
2023/08/09,00:40,0.544,0.825,0.503,1.018,0.745,0.326,0.581,0.536,��,7.2,�L
2023/08/09,00:50,0.544,0.826,0.504,1.020,0.743,0.328,0.582,0.536,��,7.2,��
2023/08/09,01:00,0.542,0.828,0.504,1.019,0.744,0.328,0.581,0.536,��,6.6,��
2023/08/09,01:10,0.545,0.827,0.504,1.018,0.744,0.326,0.582,0.537,��,6.2,��
2023/08/09,01:20,0.544,0.826,0.504,1.017,0.744,0.327,0.581,0.538,��,6.3,��
2023/08/09,01:30,0.544,0.827,0.502,1.019,0.744,0.328,0.580,0.536,��,6.0,��
2023/08/09,01:40,0.544,0.828,0.503,1.018,0.744,0.327,0.582,0.535,��,5.3,�L
2023/08/09,01:50,0.543,0.827,0.505,1.020,0.746,0.327,0.581,0.536,��,6.6,�L
2023/08/09,02:00,0.542,0.826,0.502,1.019,0.747,0.327,0.578,0.535,��,7.5,�L
2023/08/09,02:10,0.538,0.824,0.501,1.019,0.741,0.326,0.578,0.534,��,6.9,�L
2023/08/09,02:20,0.539,0.823,0.502,1.017,0.741,0.325,0.577,0.536,��,7.7,�L
2023/08/09,02:30,0.537,0.817,0.498,1.015,0.731,0.322,0.575,0.533,��,7.7,�L
2023/08/09,02:40,0.534,0.811,0.496,1.010,0.725,0.321,0.574,0.533,��,7.1,�L
2023/08/09,02:50,0.533,0.811,0.495,1.012,0.726,0.321,0.575,0.534,��쓌,7.9,�L
2023/08/09,03:00,0.532,0.809,0.496,1.007,0.725,0.321,0.573,0.533,��,6.9,�L
2023/08/09,03:10,0.531,0.807,0.494,1.008,0.721,0.320,0.573,0.531,��,8.1,�L
2023/08/09,03:20,0.530,0.806,0.494,1.007,0.719,0.320,0.575,0.533,��,7.9,��
2023/08/09,03:30,0.534,0.806,0.493,1.003,0.719,0.320,0.573,0.534,��,6.8,��
2023/08/09,03:40,0.532,0.808,0.492,1.005,0.721,0.320,0.573,0.532,��,7.7,��
2023/08/09,03:50,0.533,0.806,0.494,1.006,0.721,0.320,0.574,0.533,��,7.4,��
2023/08/09,04:00,0.531,0.809,0.495,1.004,0.722,0.321,0.572,0.532,��,8.0,�L
2023/08/09,04:10,0.532,0.809,0.495,1.004,0.720,0.320,0.575,0.532,��,6.9,�L
2023/08/09,04:20,0.532,0.808,0.493,1.005,0.720,0.320,0.573,0.531,��쓌,9.6,�L
2023/08/09,04:30,0.532,0.808,0.493,1.006,0.718,0.321,0.573,0.531,��쓌,9.9,�L
2023/08/09,04:40,0.529,0.806,0.492,1.004,0.718,0.319,0.570,0.532,��쓌,9.0,�L
2023/08/09,04:50,0.528,0.805,0.493,1.003,0.720,0.320,0.570,0.532,��,6.8,�L
2023/08/09,05:00,0.530,0.805,0.491,1.004,0.721,0.320,0.571,0.531,��,6.2,�L
2023/08/09,05:10,0.530,0.791,0.487,0.989,0.703,0.315,0.568,0.531,��,6.7,�L
2023/08/09,05:20,0.520,0.776,0.481,0.974,0.695,0.311,0.565,0.528,��,7.3,�L
2023/08/09,05:30,0.522,0.783,0.484,0.974,0.701,0.312,0.566,0.528,��,6.8,�L
2023/08/09,05:40,0.522,0.783,0.484,0.976,0.703,0.314,0.566,0.527,��,8.6,�L
2023/08/09,05:50,0.521,0.784,0.484,0.977,0.705,0.314,0.566,0.527,��,7.1,��
2023/08/09,06:00,0.523,0.786,0.486,0.977,0.705,0.315,0.566,0.528,��,6.8,�L
2023/08/09,06:10,0.523,0.784,0.482,0.972,0.695,0.311,0.564,0.528,��,5.4,�L
2023/08/09,06:20,0.521,0.776,0.480,0.967,0.696,0.311,0.564,0.529,��,7.0,�L
2023/08/09,06:30,0.521,0.780,0.481,0.967,0.698,0.312,0.566,0.528,��,6.8,��
2023/08/09,06:40,0.525,0.781,0.483,0.972,0.701,0.314,0.564,0.527,��,8.1,�L
2023/08/09,06:50,0.522,0.783,0.482,0.973,0.701,0.313,0.566,0.529,��,8.4,��
2023/08/09,07:00,0.524,0.785,0.486,0.974,0.703,0.314,0.565,0.527,��,8.3,��
2023/08/09,07:10,0.525,0.787,0.484,0.972,0.703,0.314,0.566,0.529,��,8.4,��
2023/08/09,07:20,0.525,0.787,0.486,0.975,0.703,0.315,0.569,0.528,��,8.3,��
2023/08/09,07:30,0.525,0.789,0.485,0.976,0.703,0.315,0.567,0.530,��,8.8,��
2023/08/09,07:40,0.522,0.790,0.486,0.977,0.704,0.317,0.567,0.530,��,8.4,��
2023/08/09,07:50,0.527,0.790,0.486,0.977,0.704,0.317,0.568,0.530,��,7.7,��
2023/08/09,08:00,0.526,0.791,0.485,0.978,0.705,0.316,0.570,0.529,��,7.9,��
2023/08/09,08:10,0.525,0.791,0.487,0.978,0.705,0.316,0.567,0.529,��,8.3,�L
2023/08/09,08:20,0.527,0.792,0.486,0.977,0.705,0.315,0.568,0.528,��,7.9,��
2023/08/09,08:30,0.527,0.793,0.487,0.978,0.705,0.317,0.569,0.530,��,7.0,��
2023/08/09,08:40,0.530,0.792,0.487,0.977,0.707,0.317,0.569,0.527,��,8.2,�L
2023/08/09,08:50,0.527,0.793,0.488,0.979,0.707,0.317,0.569,0.527,��,7.8,�L
2023/08/09,09:00,0.528,0.792,0.489,0.978,0.707,0.315,0.568,0.528,��,7.3,��
2023/08/09,09:10,0.530,0.795,0.489,0.979,0.708,0.318,0.570,0.527,��,7.5,��
2023/08/09,09:20,0.529,0.795,0.489,0.978,0.705,0.317,0.571,0.528,��,7.3,�L
2023/08/09,09:30,0.530,0.796,0.488,0.978,0.707,0.317,0.569,0.528,��,8.1,�L
2023/08/09,09:40,0.530,0.797,0.490,0.976,0.706,0.317,0.570,0.528,��,8.1,�L
2023/08/09,09:50,0.528,0.797,0.490,0.979,-,0.316,0.572,0.528,��쓌,7.4,�L
2023/08/09,10:00,0.530,0.798,0.490,0.980,-,0.316,0.571,0.529,��,7.2,��
2023/08/09,10:10,0.529,0.794,0.490,0.980,-,0.318,0.571,0.529,��쓌,7.9,��
2023/08/09,10:20,0.531,0.800,0.489,0.979,-,0.318,0.571,0.529,��쓌,9.8,��
2023/08/09,10:30,0.531,0.799,0.491,0.982,-,0.316,0.570,0.529,��쓌,11.3,��
2023/08/09,10:40,0.531,0.798,0.492,0.982,-,0.319,0.571,0.530,��쓌,10.6,��
2023/08/09,10:50,0.531,0.799,0.492,0.982,-,0.318,0.569,0.528,��쓌,10.5,��
2023/08/09,11:00,0.533,0.800,0.492,0.982,-,0.317,0.571,0.529,��쓌,9.3,��
2023/08/09,11:10,0.531,0.800,0.493,0.983,-,0.317,0.569,0.530,��쓌,9.5,��
2023/08/09,11:20,0.532,0.801,0.491,0.982,-,0.318,0.571,0.529,��쓌,11.0,��
2023/08/09,11:30,0.533,0.801,0.493,0.980,-,0.318,0.571,0.531,��쓌,9.9,��
2023/08/09,11:40,0.533,0.803,0.492,0.980,0.712,0.319,0.571,0.530,��쓌,10.7,��
2023/08/09,11:50,0.533,0.803,0.493,0.983,0.713,0.318,0.570,0.529,��쓌,10.2,��
2023/08/09,12:00,0.533,0.805,0.495,0.982,0.713,0.319,0.570,0.531,��쓌,11.3,��
2023/08/09,12:10,0.534,0.804,0.495,0.981,0.716,0.319,0.570,0.532,��쓌,10.7,��
2023/08/09,12:20,0.534,0.804,0.494,0.980,0.715,0.320,0.572,0.531,��쓌,13.1,��
2023/08/09,12:30,0.535,0.803,0.494,0.981,0.715,0.319,0.570,0.533,��쓌,13.0,��
2023/08/09,12:40,0.533,0.806,0.495,0.981,0.718,0.319,0.572,0.531,��쓌,11.3,��
2023/08/09,12:50,0.534,0.808,0.495,0.984,0.716,0.318,0.571,0.532,��쓌,11.4,��
2023/08/09,13:00,0.536,0.807,0.495,0.984,0.720,0.318,0.572,0.532,��쓌,11.6,��
2023/08/09,13:10,0.536,0.807,0.495,0.984,0.718,0.318,0.572,0.533,��쓌,12.0,��
2023/08/09,13:20,0.536,0.807,0.496,0.985,0.718,0.320,0.571,0.533,��쓌,11.3,��
2023/08/09,13:30,0.537,0.808,0.496,0.986,0.718,0.319,0.572,0.531,��쓌,10.9,��
2023/08/09,13:40,0.535,0.808,0.495,0.985,0.719,0.319,0.573,0.532,��쓌,13.8,��
2023/08/09,13:50,0.535,0.808,0.496,0.987,0.720,0.320,0.576,0.531,��쓌,13.3,��
2023/08/09,14:00,0.537,0.808,0.496,0.984,0.720,0.320,0.574,0.530,��쓌,13.3,��
2023/08/09,14:10,0.536,0.809,0.498,0.988,0.720,0.320,0.576,0.534,��쓌,11.9,��
2023/08/09,14:20,0.536,0.807,0.497,0.988,0.719,0.319,0.574,0.533,��쓌,12.0,��
2023/08/09,14:30,0.536,0.808,0.495,0.988,0.720,0.319,0.576,0.532,��쓌,11.3,��
2023/08/09,14:40,0.537,0.809,0.497,0.988,0.722,0.320,0.574,0.533,��쓌,12.2,��
2023/08/09,14:50,0.537,0.809,0.497,0.987,0.720,0.320,0.576,0.533,��쓌,12.4,��
2023/08/09,15:00,0.536,0.811,0.497,0.987,0.722,0.320,0.574,0.532,��쓌,11.6,��
2023/08/09,15:10,0.537,0.810,0.496,0.987,0.720,0.321,0.574,0.532,��쓌,11.6,��
2023/08/09,15:20,0.537,0.810,0.497,0.985,0.721,0.320,0.575,0.533,��쓌,12.7,��
2023/08/09,15:30,0.537,0.811,0.496,0.986,0.721,0.319,0.574,0.532,��쓌,12.7,��
2023/08/09,15:40,0.537,0.812,0.496,0.989,0.720,0.320,0.573,0.532,��쓌,12.0,��
2023/08/09,15:50,0.536,0.809,0.496,0.987,0.722,0.319,0.573,0.532,��,10.0,��
2023/08/09,16:00,0.539,0.811,0.497,0.988,0.719,0.320,0.573,0.533,��쓌,10.3,��
2023/08/09,16:10,0.539,0.811,0.496,0.985,0.721,0.321,0.573,0.533,��쓌,11.6,��
2023/08/09,16:20,0.536,0.812,0.495,0.990,0.721,0.322,0.574,0.531,��쓌,10.8,��
2023/08/09,16:30,0.539,0.811,0.496,0.991,0.720,0.321,0.574,0.532,��,10.9,��
2023/08/09,16:40,0.537,0.812,0.495,0.992,0.723,0.320,0.573,0.532,��,9.7,��
2023/08/09,16:50,0.537,0.811,0.497,0.990,0.723,0.320,0.573,0.533,��,10.2,��
2023/08/09,17:00,0.537,0.812,0.495,0.990,0.723,0.320,0.573,0.531,��쓌,10.7,��
2023/08/09,17:10,0.539,0.812,0.496,0.989,0.722,0.320,0.574,0.533,��쓌,9.7,��
2023/08/09,17:20,0.538,0.809,0.496,0.990,0.721,0.320,0.573,0.532,��쓌,10.2,��
2023/08/09,17:30,0.538,0.810,0.496,0.991,0.721,0.321,0.574,0.531,��쓌,9.1,��
2023/08/09,17:40,0.538,0.810,0.498,0.990,0.721,0.321,0.573,0.533,��쓌,8.3,��
2023/08/09,17:50,0.539,0.812,0.498,0.993,0.721,0.322,0.573,0.532,��쓌,11.0,��
2023/08/09,18:00,0.537,0.811,0.497,0.990,0.722,0.320,0.573,0.530,��쓌,10.2,��
2023/08/09,18:10,0.537,0.811,0.497,0.992,0.721,0.321,0.571,0.532,��쓌,10.5,�L
2023/08/09,18:20,0.537,0.813,0.498,0.992,0.720,0.321,0.574,0.532,��,8.5,��
2023/08/09,18:30,0.536,0.811,0.496,0.992,0.723,0.321,0.572,0.533,��쓌,9.7,��
2023/08/09,18:40,0.537,0.810,0.497,0.989,0.722,0.320,0.572,0.532,��,7.7,��
2023/08/09,18:50,0.537,0.812,0.496,0.992,0.720,0.322,0.572,0.534,��,8.2,��
2023/08/09,19:00,0.539,0.812,0.498,0.991,0.722,0.321,0.573,0.533,��,9.3,�L
2023/08/09,19:10,0.539,0.812,0.496,0.990,0.724,0.321,0.572,0.532,��,10.0,�L
2023/08/09,19:20,0.536,0.811,0.497,0.990,0.725,0.323,0.571,0.532,��,9.9,�L
2023/08/09,19:30,0.536,0.813,0.495,0.990,0.722,0.321,0.572,0.530,��,9.1,�L
2023/08/09,19:40,0.537,0.811,0.498,0.993,0.722,0.321,0.574,0.530,��,8.7,��
2023/08/09,19:50,0.537,0.812,0.498,0.991,0.721,0.321,0.573,0.532,��쓌,8.8,��
2023/08/09,20:00,0.537,0.812,0.496,0.991,0.722,0.320,0.572,0.531,��,7.8,�L
2023/08/09,20:10,0.535,0.811,0.497,0.990,0.719,0.320,0.570,0.531,��,6.5,�L
2023/08/09,20:20,0.536,0.810,0.496,0.990,0.717,0.321,0.572,0.531,��쓌,8.1,��
2023/08/09,20:30,0.537,0.811,0.497,0.992,0.719,0.318,0.573,0.532,��쓌,9.3,�L
2023/08/09,20:40,0.536,0.807,0.495,0.988,0.718,0.320,0.572,0.530,��,8.3,�L
2023/08/09,20:50,0.536,0.805,0.493,0.988,0.717,0.320,0.571,0.531,��,7.9,��
2023/08/09,21:00,0.538,0.806,0.494,0.990,0.719,0.321,0.573,0.532,��쓌,8.4,��
2023/08/09,21:10,0.537,0.806,0.494,0.991,0.718,0.320,0.572,0.532,��,9.2,��
2023/08/09,21:20,0.536,0.804,0.495,0.989,0.719,0.320,0.574,0.530,��,7.8,�L
2023/08/09,21:30,0.536,0.807,0.496,0.990,0.718,0.319,0.572,0.532,��쓌,8.4,��
2023/08/09,21:40,0.537,0.807,0.496,0.989,0.719,0.320,0.573,0.532,��쓌,9.0,��
2023/08/09,21:50,0.536,0.805,0.496,0.990,0.719,0.319,0.572,0.531,��쓌,9.0,��
2023/08/09,22:00,0.536,0.806,0.495,0.991,0.719,0.320,0.572,0.531,��쓌,10.3,��
2023/08/09,22:10,0.536,0.809,0.495,0.989,0.719,0.319,0.573,0.532,��,9.4,��
2023/08/09,22:20,0.535,0.807,0.496,0.991,0.719,0.320,0.573,0.532,��,9.4,��
2023/08/09,22:30,0.536,0.804,0.494,0.993,0.720,0.318,0.574,0.532,��,9.6,��
2023/08/09,22:40,0.537,0.806,0.495,0.989,0.719,0.320,0.574,0.533,��,8.4,��
2023/08/09,22:50,0.537,0.805,0.497,0.992,0.719,0.319,0.573,0.532,��,9.7,��
2023/08/09,23:00,0.537,0.807,0.496,0.989,0.718,0.320,0.574,0.533,��,10.0,��
2023/08/09,23:10,0.535,0.806,0.496,0.991,0.720,0.321,0.574,0.532,��,8.5,��
2023/08/09,23:20,0.536,0.807,0.495,0.992,0.719,0.321,0.574,0.532,��,8.2,��
2023/08/09,23:30,0.536,0.808,0.496,0.991,0.719,0.319,0.573,0.532,��,9.0,��
2023/08/09,23:40,0.538,0.807,0.495,0.989,0.718,0.321,0.574,0.532,��,6.7,��
2023/08/09,23:50,0.535,0.807,0.494,0.992,0.717,0.320,0.575,0.532,��,8.7,��
